Météo par heure à Judyty

Ce jour, 17 Juin, Jeudi

Heure Température Précipitation Vent Pression Humidité
00:00 +13°C° 0 mm 2 m/s 763 mmHg 90%
01:00 +13°C° 0 mm 2 m/s 763 mmHg 90%
02:00 +11°C° 0 mm 3 m/s 763 mmHg 89%
03:00 +11°C° 0 mm 3 m/s 762 mmHg 89%
04:00 +11°C° 0 mm 3 m/s 762 mmHg 88%
05:00 +15°C° 0 mm 2 m/s 762 mmHg 81%
06:00 +17°C° 0 mm 2 m/s 763 mmHg 75%
07:00 +19°C° 0 mm 2 m/s 763 mmHg 68%
08:00 +20°C° 0 mm 3 m/s 763 mmHg 64%
09:00 +22°C° 0 mm 3 m/s 763 mmHg 60%
10:00 +25°C° 0 mm 3 m/s 763 mmHg 55%
11:00 +25°C° 0 mm 4 m/s 763 mmHg 54%
12:00 +26°C° 0 mm 4 m/s 763 mmHg 52%
13:00 +27°C° 0 mm 4 m/s 763 mmHg 50%
14:00 +27°C° 0 mm 4 m/s 763 mmHg 52%
15:00 +27°C° 0 mm 3 m/s 762 mmHg 54%
16:00 +27°C° 0 mm 3 m/s 762 mmHg 56%
17:00 +25°C° 0 mm 3 m/s 762 mmHg 62%
18:00 +24°C° 0 mm 3 m/s 762 mmHg 68%
19:00 +21°C° 0 mm 3 m/s 762 mmHg 74%
20:00 +20°C° 0 mm 3 m/s 762 mmHg 75%
21:00 +19°C° 0 mm 3 m/s 763 mmHg 76%
22:00 +17°C° 0 mm 3 m/s 763 mmHg 77%
23:00 +17°C° 0 mm 3 m/s 763 mmHg 78%

Demain, 18 Juin, Vendredi

Heure Température Précipitation Vent Pression Humidité
00:00 +16°C° 0 mm 3 m/s 763 mmHg 80%
01:00 +16°C° 0 mm 3 m/s 763 mmHg 82%
02:00 +16°C° 0 mm 3 m/s 763 mmHg 85%
03:00 +14°C° 0 mm 3 m/s 763 mmHg 87%
04:00 +14°C° 0 mm 3 m/s 763 mmHg 89%
05:00 +17°C° 0 mm 3 m/s 763 mmHg 83%
06:00 +19°C° 0 mm 4 m/s 762 mmHg 77%
07:00 +21°C° 0 mm 4 m/s 762 mmHg 71%
08:00 +23°C° 0 mm 4 m/s 762 mmHg 67%
09:00 +25°C° 0 mm 4 m/s 762 mmHg 63%
10:00 +27°C° 0 mm 4 m/s 762 mmHg 59%
11:00 +27°C° 0 mm 5 m/s 762 mmHg 58%
12:00 +28°C° 0 mm 5 m/s 762 mmHg 56%
13:00 +29°C° 0 mm 5 m/s 761 mmHg 55%
14:00 +29°C° 0 mm 5 m/s 761 mmHg 57%
15:00 +29°C° 0 mm 4 m/s 761 mmHg 58%
16:00 +29°C° 0 mm 4 m/s 761 mmHg 60%
17:00 +28°C° 0 mm 4 m/s 761 mmHg 66%
18:00 +27°C° 0 mm 3 m/s 760 mmHg 71%
19:00 +26°C° 0 mm 3 m/s 760 mmHg 77%
20:00 +24°C° 0 mm 3 m/s 761 mmHg 78%
21:00 +22°C° 0 mm 4 m/s 761 mmHg 79%
22:00 +21°C° 0 mm 4 m/s 761 mmHg 81%
23:00 +20°C° 0 mm 4 m/s 761 mmHg 82%

Après-demain, 19 Juin, Samedi

Heure Température Précipitation Vent Pression Humidité
00:00 +20°C° 0 mm 3 m/s 761 mmHg 84%
01:00 +19°C° 0 mm 3 m/s 761 mmHg 85%
02:00 +19°C° 0 mm 3 m/s 761 mmHg 87%
03:00 +18°C° 0 mm 3 m/s 761 mmHg 89%
04:00 +18°C° 0 mm 3 m/s 761 mmHg 90%
05:00 +20°C° 0 mm 3 m/s 761 mmHg 86%
06:00 +21°C° 0 mm 4 m/s 761 mmHg 81%
07:00 +23°C° 0 mm 4 m/s 761 mmHg 76%
08:00 +25°C° 0 mm 4 m/s 761 mmHg 71%
09:00 +27°C° 0 mm 5 m/s 761 mmHg 66%
10:00 +28°C° 0 mm 5 m/s 760 mmHg 62%
11:00 +29°C° 0 mm 5 m/s 760 mmHg 59%
12:00 +29°C° 0 mm 5 m/s 760 mmHg 57%
13:00 +30°C° 0 mm 5 m/s 760 mmHg 55%
14:00 +30°C° 0 mm 5 m/s 759 mmHg 57%
15:00 +30°C° 0 mm 4 m/s 759 mmHg 58%
16:00 +30°C° 0 mm 4 m/s 759 mmHg 60%
17:00 +29°C° 0 mm 3 m/s 759 mmHg 66%
18:00 +28°C° 0 mm 3 m/s 759 mmHg 71%
19:00 +27°C° 0 mm 3 m/s 759 mmHg 77%
20:00 +25°C° 0 mm 3 m/s 759 mmHg 78%
21:00 +24°C° 0 mm 3 m/s 759 mmHg 80%
22:00 +22°C° 0 mm 3 m/s 759 mmHg 81%
23:00 +22°C° 0 mm 3 m/s 759 mmHg 83%

20 Juin, Dimanche

Heure Température Précipitation Vent Pression Humidité
00:00 +21°C° 0 mm 3 m/s 759 mmHg 86%
01:00 +20°C° 0 mm 3 m/s 759 mmHg 88%
02:00 +20°C° 0 mm 3 m/s 759 mmHg 89%
03:00 +20°C° 0 mm 3 m/s 759 mmHg 90%
04:00 +20°C° 0 mm 3 m/s 759 mmHg 91%
05:00 +21°C° 0 mm 3 m/s 759 mmHg 86%
06:00 +23°C° 0 mm 4 m/s 759 mmHg 80%
07:00 +25°C° 0 mm 4 m/s 759 mmHg 75%
08:00 +26°C° 0 mm 4 m/s 759 mmHg 70%
09:00 +27°C° 0 mm 4 m/s 759 mmHg 65%
10:00 +29°C° 0 mm 4 m/s 759 mmHg 60%
11:00 +29°C° 0 mm 4 m/s 758 mmHg 58%
12:00 +30°C° 0 mm 4 m/s 758 mmHg 56%
13:00 +30°C° 0 mm 5 m/s 758 mmHg 53%
14:00 +30°C° 0 mm 4 m/s 757 mmHg 56%
15:00 +30°C° 0 mm 4 m/s 757 mmHg 59%
16:00 +29°C° 0 mm 4 m/s 757 mmHg 62%
17:00 +28°C° 0 mm 3 m/s 757 mmHg 67%
18:00 +27°C° 0 mm 3 m/s 757 mmHg 72%
19:00 +25°C° 0 mm 3 m/s 756 mmHg 78%
20:00 +24°C° 0 mm 3 m/s 756 mmHg 80%
21:00 +22°C° 0 mm 3 m/s 756 mmHg 83%
22:00 +21°C° 0 mm 3 m/s 756 mmHg 85%
23:00 +21°C° 0 mm 3 m/s 756 mmHg 86%

21 Juin, Lundi

Heure Température Précipitation Vent Pression Humidité
00:00 +21°C° 0 mm 3 m/s 756 mmHg 86%
01:00 +20°C° 0 mm 3 m/s 756 mmHg 87%
02:00 +20°C° 0 mm 3 m/s 756 mmHg 88%
03:00 +20°C° 0 mm 4 m/s 756 mmHg 90%
04:00 +20°C° 0 mm 4 m/s 756 mmHg 92%
05:00 +21°C° 0 mm 4 m/s 755 mmHg 86%
06:00 +23°C° 0 mm 5 m/s 755 mmHg 81%
07:00 +25°C° 0 mm 5 m/s 755 mmHg 76%
08:00 +27°C° 0 mm 6 m/s 755 mmHg 71%
09:00 +28°C° 0 mm 6 m/s 755 mmHg 65%
10:00 +29°C° 0 mm 7 m/s 755 mmHg 59%
11:00 +30°C° 0 mm 6 m/s 755 mmHg 57%
12:00 +30°C° 0 mm 6 m/s 755 mmHg 54%
13:00 +32°C° 0 mm 6 m/s 754 mmHg 52%
14:00 +30°C° 0 mm 6 m/s 754 mmHg 54%
15:00 +30°C° 0 mm 5 m/s 754 mmHg 56%
16:00 +30°C° 0 mm 5 m/s 754 mmHg 57%
17:00 +29°C° 0.1 mm 4 m/s 754 mmHg 63%
18:00 +28°C° 0.1 mm 4 m/s 754 mmHg 69%
19:00 +26°C° 0.1 mm 4 m/s 754 mmHg 75%
20:00 +25°C° 0 mm 3 m/s 754 mmHg 78%
21:00 +24°C° 0 mm 3 m/s 754 mmHg 80%
22:00 +22°C° 0 mm 3 m/s 754 mmHg 83%
23:00 +21°C° 0 mm 3 m/s 754 mmHg 84%

22 Juin, Mardi

Heure Température Précipitation Vent Pression Humidité
00:00 +21°C° 0 mm 3 m/s 754 mmHg 86%
01:00 +20°C° 0 mm 3 m/s 753 mmHg 88%
02:00 +20°C° 0 mm 3 m/s 753 mmHg 89%
03:00 +20°C° 0 mm 2 m/s 753 mmHg 89%
04:00 +19°C° 0 mm 2 m/s 753 mmHg 90%
05:00 +21°C° 0 mm 3 m/s 753 mmHg 85%
06:00 +24°C° 0 mm 3 m/s 753 mmHg 80%
07:00 +25°C° 0 mm 4 m/s 753 mmHg 75%
08:00 +27°C° 0 mm 4 m/s 753 mmHg 70%
09:00 +28°C° 0 mm 4 m/s 753 mmHg 65%
10:00 +29°C° 0 mm 4 m/s 753 mmHg 60%
11:00 +30°C° 0.1 mm 4 m/s 753 mmHg 58%
12:00 +30°C° 0.1 mm 4 m/s 753 mmHg 57%
13:00 +32°C° 0.1 mm 4 m/s 753 mmHg 55%
14:00 +30°C° 0.2 mm 4 m/s 753 mmHg 60%
15:00 +29°C° 0.2 mm 4 m/s 752 mmHg 65%
16:00 +28°C° 0.2 mm 4 m/s 752 mmHg 70%
17:00 +26°C° 2.2 mm 3 m/s 753 mmHg 77%
18:00 +25°C° 2.2 mm 3 m/s 754 mmHg 84%
19:00 +22°C° 2.2 mm 3 m/s 754 mmHg 92%
20:00 +21°C° 1.2 mm 3 m/s 755 mmHg 93%
21:00 +20°C° 1.2 mm 3 m/s 755 mmHg 95%
22:00 +20°C° 1.2 mm 3 m/s 756 mmHg 96%
23:00 +19°C° 0 mm 3 m/s 756 mmHg 96%
Voir plus

Nous avons besoin de votre consentement

Meteoprog et ses fournisseurs de services peuvent stocker et accéder à des données personnelles telles que des cookies, des identifiants d'appareils ou d'autres technologies similaires sur votre appareil et traiter ces données pour personnaliser le contenu et les publicités, ainsi que pour fournir des fonctionnalités de médias sociaux et analyser le trafic.

  • Stocker et/ou accéder à des informations sur votre appareil

    Des cookies, des identifiants d'appareils ou d'autres informations peuvent être stockés ou accessibles sur votre appareil aux fins indiquées ci-dessus.

  • Annonces et contenus personnalisés, mesure des annonces et des contenus, connaissance de l'audience et développement de produits

    Les annonces et le contenu peuvent être personnalisés en fonction d'un profil. D'autres données peuvent être ajoutées pour mieux personnaliser les annonces et le contenu. Les performances des publicités et du contenu peuvent être mesurées. Il est possible d'obtenir des informations sur le public qui a vu les publicités et le contenu. Ces données peuvent être utilisées pour développer ou améliorer l'expérience de l'utilisateur, les systèmes et les logiciels.

En cliquant sur "J'accepte", vous autorisez l'utilisation de cookies, des identifiants d'appareils, des balises web ou d'autres technologies similaires. Vos paramètres peuvent être modifiés dans le navigateur de votre appareil.

Dans certains cas, des intérêts légitimes peuvent être invoqués plutôt qu'un consentement. Vous pouvez en savoir plus à ce sujet dans notre Politique de confidentialité et de cookies.